Location: Unspecified
(0.0000°N, 0.0000°E)
Time: 11:26:18
(UTC+00:00)

Vanguard 3 - Pass Details

Date: 22 November 2019
Orbit: 508 x 3263 km, 33.3° (Epoch: 07 December)

Event Time Altitude Azimuth Distance (km) Brightness Sun altitude
Rises 22:12:20 0° 293° (WNW) 4,954 11.3 -59.4°
Enters shadow 22:13:55 - 291° (WNW) 4,408 11.0 -59.7°
Reaches altitude 10° 22:16:34 10° 286° (WNW) 3,478 - -60.2°
Maximum altitude 22:23:53 37° 222° (SW) 1,419 - -61.5°
Drops below altitude 10° 22:28:29 10° 154° (SSE) 2,165 - -62.2°
Sets 22:30:34 0° 144° (SE) 2,899 - -62.6°
